GFSSGP_con_lsi_087.txt.gz
Lid_Strength_Index
3 3 5 8 13 15 16 13 11 10 9 7 6 7 8 8 9 11 4 2 1 1 -0 -0 -0 -1 -1 -1 -1 -1 -1 -1 -1 -1 -1 -1 -1 -1 -2 -2 -2 -2 -2 -2 -2 -2 -2 -2 -2
4 4 7 11 15 17 15 13 11 9 7 6 6 6 8 9 5 5 3 1 1 2 -0 -0 -0 -1 -1 -1 -1 -1 -1 -1 -1 -1 -1 -1 -1 -2 -2 -2 -2 -2 -2 -2 -2 -2 -2 -2 -2
5 5 10 13 16 16 15 12 10 8 6 6 8 6 7 8 4 4 2 1 2 3 2 -0 -0 -0 -1 -1 -1 -1 -1 -1 -1 -1 -1 -1 -1 -2 -2 -2 -2 -2 -2 -2 -2 -2 -2 -2 -2
7 9 11 14 15 13 12 10 9 8 7 7 7 8 5 3 4 2 1 0 3 2 2 0 -0 -1 -1 -1 -1 -1 -1 -1 -1 -1 -1 -1 -1 -2 -2 -2 -2 -2 -2 -2 -2 -1 -1 -2 -2
8 11 14 15 15 12 10 9 7 8 8 7 6 8 7 3 1 1 1 1 3 3 2 1 -0 -1 -1 -1 -1 -1 -1 -1 -1 -1 -1 -1 -1 -1 -1 -1 -2 -2 -2 -2 -2 -1 -2 -2 -2
10 12 15 16 14 11 10 8 7 8 7 7 7 8 7 3 3 2 1 1 1 1 1 2 -0 -1 -1 -1 -1 -1 -1 -1 -1 -1 -1 -1 -1 -1 -1 -1 -2 -2 -2 -2 -1 -1 -2 -2 -2
11 13 15 15 13 12 10 6 8 8 8 7 6 9 6 5 2 1 2 2 1 1 1 1 2 -0 -1 -0 -0 -0 -1 -1 -0 -0 -0 -1 -1 -1 -1 -1 -2 -2 -2 -1 -1 -0 -1 -2 -2
11 12 14 14 13 13 9 7 6 7 8 5 5 9 8 4 2 1 2 1 1 1 1 1 1 1 -0 -0 -0 -0 -1 -0 -0 -0 -0 -0 -0 -0 -1 -1 -2 -2 -2 -1 -1 0 -1 -1 -2
11 14 15 13 13 11 9 7 6 5 7 6 5 5 4 3 2 2 3 3 3 2 2 2 2 2 0 -0 -1 -1 -1 -0 -0 -0 -0 0 -1 -0 -0 -1 -1 -2 -1 -1 -0 1 0 0 -0
12 15 13 10 10 10 8 7 7 8 8 7 6 4 3 3 3 4 4 4 4 3 2 1 1 1 2 0 -0 -0 0 -1 -0 -0 -0 -1 -1 -1 -1 -1 -1 -1 -1 -0 0 2 3 4 4
12 12 10 8 8 9 10 8 7 8 10 8 8 6 4 4 4 4 4 3 4 3 2 1 1 1 2 2 0 0 -0 -0 0 0 -0 -0 -0 -1 -0 0 1 1 1 3 3 4 7 8 6
13 10 9 8 8 7 9 7 8 8 8 6 5 5 5 5 4 4 4 3 3 2 2 1 2 1 2 1 1 1 1 1 1 1 0 0 0 0 0 2 2 3 4 4 5 6 7 8 6
11 9 8 7 7 7 6 8 8 8 6 5 5 5 5 5 4 3 3 3 3 3 3 2 1 1 2 2 2 2 2 1 1 1 1 1 1 1 2 3 4 4 4 5 6 7 7 7 6
9 9 8 8 8 7 7 8 8 7 6 6 6 6 5 5 4 4 3 3 3 4 3 3 3 1 1 2 3 3 3 2 1 2 2 1 1 2 3 4 5 4 5 5 6 7 7 7 6
9 10 9 8 9 8 8 10 9 7 6 7 6 6 5 5 4 4 3 3 3 4 4 3 3 3 2 3 4 4 2 1 1 1 2 2 2 2 3 4 4 4 4 4 6 7 7 7 7
10 11 13 10 9 8 9 12 8 6 7 8 7 6 6 5 4 3 3 3 3 4 4 3 3 3 4 4 3 2 2 1 1 1 1 2 2 3 3 4 4 4 4 4 5 6 7 7 7
13 14 13 11 9 9 10 11 10 7 7 8 8 7 6 5 4 3 3 3 3 4 4 4 4 4 3 4 3 3 2 2 2 2 2 1 1 2 3 3 4 3 4 4 4 6 7 8 8
15 14 12 12 10 9 10 10 9 8 8 8 8 7 7 6 5 4 4 3 3 3 3 4 4 4 3 3 4 4 2 3 3 2 2 1 1 1 3 3 4 3 4 4 6 7 7 7 7
12 13 13 11 9 10 10 10 9 8 8 9 8 7 7 6 5 3 3 3 3 3 4 4 4 4 4 4 4 4 4 4 4 3 2 2 1 1 2 3 3 3 3 4 6 7 7 7 6
12 13 13 11 9 10 10 11 11 8 8 8 8 8 7 6 5 4 3 3 4 4 4 4 3 3 4 4 4 4 4 4 4 2 3 2 2 1 1 2 2 3 4 5 6 6 7 6 6
12 13 12 12 10 10 12 12 11 9 8 8 7 7 7 7 6 5 4 3 3 4 3 3 3 4 4 4 4 5 4 4 4 3 2 2 1 1 0 1 2 2 3 5 6 6 6 7 7
14 11 11 11 12 15 12 16 13 11 10 9 8 8 7 6 5 5 4 4 4 3 3 3 3 3 4 4 5 5 5 5 4 4 2 3 2 1 1 0 1 3 4 5 6 6 6 6 7
12 10 11 11 12 14 14 15 14 11 12 10 9 8 7 6 6 5 5 4 4 3 3 3 3 3 3 4 4 4 4 4 3 2 2 2 1 0 -0 1 2 3 4 4 5 6 6 5 6
9 11 11 12 13 17 14 15 15 13 11 10 8 7 7 6 6 5 4 4 4 4 3 3 3 3 3 3 3 4 4 3 2 2 2 2 1 1 1 1 2 2 3 5 5 5 4 5 6
11 14 18 18 18 19 13 16 14 10 9 8 8 7 7 6 6 6 5 4 4 4 4 3 3 3 3 3 3 3 3 3 2 2 2 2 2 2 1 1 2 2 3 4 4 5 5 5 6
13 13 17 20 21 18 14 17 13 9 8 8 6 6 6 6 6 5 5 5 4 4 4 3 3 3 3 3 3 3 3 2 2 2 1 1 1 1 1 1 1 2 4 4 5 6 6 6 6
13 14 11 15 16 19 16 13 10 9 9 9 8 7 7 6 6 6 5 5 4 4 4 4 4 3 3 3 3 3 3 2 2 1 1 1 1 1 1 1 2 3 4 5 6 7 7 7 6
11 10 14 15 20 22 18 16 15 11 11 10 9 8 7 6 6 5 5 5 4 4 4 4 4 4 3 3 3 2 2 2 1 1 1 1 1 1 2 3 3 4 5 6 6 6 6 6 6
12 13 12 12 15 18 20 17 10 10 9 10 10 7 7 6 6 5 4 4 4 4 4 4 4 4 4 3 2 2 2 2 1 1 1 1 1 3 3 3 3 5 6 6 5 6 6 6 6
10 11 11 16 17 16 16 16 10 9 10 9 9 9 8 6 5 5 4 4 4 4 4 4 5 5 4 3 2 2 1 1 1 1 2 2 3 3 3 4 4 5 6 6 6 7 6 6 6

GFSSGP_con_lsi_090.txt.gz
Lid_Strength_Index
3 4 6 9 13 15 16 14 12 11 10 7 6 8 9 8 10 11 4 4 1 0 -0 -0 -0 -1 -1 -1 -1 -1 -1 -1 -1 -1 -1 -1 -1 -1 -2 -2 -2 -2 -2 -2 -2 -2 -2 -2 -2
4 5 8 12 15 18 16 14 12 9 7 6 6 7 8 9 5 5 4 1 1 0 -0 -0 -0 -1 -1 -1 -1 -1 -1 -1 -1 -1 -1 -1 -1 -2 -2 -2 -2 -2 -2 -2 -2 -2 -2 -2 -1
6 7 10 14 17 17 16 12 11 9 6 7 9 6 7 8 5 4 2 1 2 2 -0 -0 -0 -0 -1 -1 -1 -1 -1 -1 -1 -1 -1 -1 -2 -2 -2 -2 -2 -2 -2 -2 -2 -2 -2 -2 -2
8 9 12 14 16 14 12 11 10 9 8 7 8 8 5 3 4 2 1 1 2 2 2 -0 -0 -0 -1 -1 -1 -1 -1 -1 -1 -1 -1 -2 -2 -2 -2 -1 -2 -2 -2 -2 -2 -2 -2 -2 -1
9 12 15 17 16 13 11 10 10 9 8 7 7 8 7 4 2 1 2 1 2 3 2 -0 0 -0 -1 -1 -1 -1 -1 -1 -1 -1 -1 -1 -2 -2 -1 -1 -1 -2 -2 -2 -2 -2 -2 -2 -1
11 12 16 17 15 12 10 10 7 8 7 7 8 8 7 3 3 2 1 2 1 3 2 1 -1 -0 -0 -1 -1 -1 -0 -1 -1 -1 -1 -1 -1 -1 -1 -1 -1 -2 -2 -2 -2 -2 -2 -1 -1
12 14 16 16 14 12 11 7 8 9 8 8 6 9 7 5 3 2 1 1 1 1 2 1 1 -0 -1 -0 -0 -0 -0 -0 -0 -0 -0 -1 -1 -1 -1 -1 -2 -2 -2 -2 -2 -2 -1 -1 -1
12 12 15 15 14 13 10 7 7 7 8 5 5 9 8 5 2 1 1 1 1 1 1 2 2 1 0 1 -0 -0 -0 -0 -0 -0 -0 -0 -0 -1 -1 -1 -2 -2 -2 -2 -2 -1 -1 -1 -1
12 14 16 15 14 12 10 8 7 6 7 6 5 6 4 3 2 2 3 3 2 2 1 1 2 2 1 -0 -0 -1 -1 -1 -0 0 -0 0 -0 -0 -0 -1 -1 -1 -1 -1 -2 -1 -1 -0 0
12 15 14 12 11 10 9 9 7 8 8 8 6 4 4 3 3 4 4 5 4 3 3 2 1 1 1 -0 -0 -0 -1 -0 -1 -1 -0 -0 -0 -0 -0 -1 -1 -1 -0 -1 -1 -0 0 1 3
13 13 12 10 9 9 10 9 7 8 10 7 8 6 5 4 4 4 4 3 4 4 2 1 1 0 1 1 -0 -0 -0 1 0 0 -0 -0 -0 -0 0 -0 1 1 1 3 3 4 5 5 6
14 11 11 10 9 8 9 8 8 8 8 6 6 5 5 5 5 4 4 3 5 4 2 1 1 1 1 1 0 0 1 1 1 -0 -0 -0 -0 1 1 2 3 3 4 5 6 7 7 8 7
13 11 10 9 8 9 7 8 8 8 7 5 5 5 5 5 6 4 4 3 2 3 3 2 1 2 2 2 1 1 2 1 1 0 -0 -0 -0 1 2 3 4 4 5 6 7 8 8 8 7
10 11 10 9 9 8 8 8 8 7 6 6 6 6 5 5 5 4 4 3 3 3 3 2 2 1 2 2 2 2 2 1 0 -0 0 -0 0 1 2 3 4 4 4 6 7 8 8 8 7
10 12 11 10 10 10 9 10 10 7 6 7 7 6 5 5 4 4 3 3 3 3 3 3 2 2 2 3 2 2 1 1 1 0 1 2 1 2 3 4 4 4 4 6 7 8 9 9 8
11 12 15 12 10 9 8 12 9 7 7 8 7 6 6 5 4 3 3 3 3 3 3 3 2 2 2 3 3 3 2 1 2 2 2 2 2 2 4 4 4 4 4 6 7 8 9 8 7
14 16 15 13 10 10 10 11 10 7 8 8 8 7 6 5 4 3 3 2 3 4 4 3 3 3 3 3 3 3 2 2 2 2 2 2 2 3 3 4 4 4 4 6 7 8 8 8 8
16 15 14 14 11 10 12 10 8 8 8 8 8 7 6 6 5 3 3 3 3 3 4 3 3 3 3 3 3 3 3 2 2 2 2 2 2 2 3 4 4 4 5 6 7 7 7 7 8
13 13 14 13 10 12 12 12 10 9 8 9 8 8 7 7 4 3 3 3 4 3 4 4 4 4 3 3 3 4 4 3 3 2 2 2 2 2 3 3 3 4 4 5 6 7 7 7 7
12 13 14 12 10 11 12 12 10 10 8 8 8 8 7 7 5 4 3 3 4 4 4 3 4 4 4 3 3 4 4 4 3 3 2 2 1 2 2 3 4 4 4 5 5 6 7 7 7
13 13 14 14 12 12 13 13 11 10 8 8 8 7 6 7 6 5 4 3 3 4 4 4 4 4 4 4 4 4 4 4 4 3 3 3 2 2 1 2 3 3 3 4 5 6 6 7 7
14 11 12 13 14 17 13 17 13 12 10 9 8 8 7 7 6 5 4 4 3 3 3 3 3 3 3 4 4 4 4 5 5 4 4 3 2 2 2 1 2 3 3 5 5 5 6 6 8
12 10 11 12 14 16 15 16 14 11 11 9 9 8 7 6 6 6 4 4 3 3 3 3 3 3 3 3 4 5 5 5 5 4 4 3 2 2 2 1 2 3 3 3 4 5 6 6 6
9 11 12 13 14 18 15 15 15 13 11 9 8 8 7 7 6 6 4 3 4 3 3 3 3 3 4 4 4 4 5 6 5 5 4 4 3 3 2 1 1 1 2 3 4 4 5 6 6
11 13 18 18 19 19 14 16 14 10 9 8 8 8 7 6 6 6 6 5 4 4 3 3 3 3 3 4 4 4 4 4 4 4 3 3 3 2 2 2 2 2 2 3 4 5 4 5 6
12 13 17 20 20 18 14 18 14 9 9 8 8 8 7 7 6 6 6 6 5 5 4 3 3 3 3 3 4 3 4 4 3 3 3 3 2 2 2 2 1 1 2 2 3 4 4 5 5
13 15 12 16 16 19 16 14 11 9 9 9 10 8 8 7 6 6 6 5 5 5 5 4 3 3 3 3 3 4 4 4 4 3 2 2 2 1 2 2 2 2 2 2 3 4 5 6 5
11 11 15 15 20 21 18 17 15 11 10 10 10 8 8 6 6 6 6 5 5 4 5 5 4 4 3 3 3 4 4 4 3 3 3 2 2 2 2 2 2 2 3 4 4 4 5 6 6
13 13 13 13 15 19 20 17 12 10 9 10 10 9 7 7 6 5 5 5 4 4 4 5 5 4 4 4 4 4 4 3 3 3 3 2 2 2 2 2 2 3 4 5 5 5 6 6 6
11 12 12 15 17 16 17 16 11 10 10 9 9 9 8 6 6 5 5 5 5 4 4 4 4 5 4 4 4 4 4 3 3 2 2 2 2 2 2 2 2 3 4 5 5 5 6 6 6

GFSSGP_con_lsi_096.txt.gz
Lid_Strength_Index
1 1 1 3 7 7 8 8 6 7 6 4 4 5 5 5 6 8 1 0 0 -0 -1 -1 -0 -1 -1 -1 -1 -1 -1 -1 -1 -1 -1 -1 -1 -1 -1 -1 -1 -2 -2 -2 -2 -2 -2 -2 -2
1 2 2 4 8 10 9 7 7 6 5 4 4 5 5 6 3 3 2 0 -0 -0 -1 -1 -0 -1 -1 -1 -1 -1 -1 -1 -1 -1 -1 -1 -1 -1 -1 -2 -2 -2 -2 -2 -2 -2 -2 -2 -1
2 2 5 6 7 9 8 7 6 5 4 4 5 4 4 5 3 2 1 -0 -0 -1 -1 -1 -0 -0 -1 -1 -1 -1 -1 -1 -1 -1 -1 -1 -1 -1 -1 -2 -2 -2 -2 -2 -2 -2 -2 -1 -1
3 4 5 8 9 8 8 6 5 5 4 4 4 6 3 2 2 1 0 -0 -0 -0 -1 -1 -0 -0 -0 -1 -1 -1 -1 -1 -1 -1 -1 -1 -1 -2 -2 -1 -2 -2 -2 -2 -2 -2 -2 -1 -1
2 4 8 9 9 8 6 6 5 5 5 5 4 5 5 2 1 1 0 -0 0 -0 -1 1 0 -0 -0 -1 -1 -1 -1 -1 -1 -1 -1 -1 -1 -1 -1 -1 -1 -2 -2 -2 -2 -2 -1 -1 -1
5 5 9 10 9 7 6 5 5 5 5 5 5 5 4 2 2 1 0 0 -0 -0 -0 -1 -1 -1 -1 -0 -0 -0 -0 -0 -0 -1 -1 -1 -1 -1 -1 -1 -1 -1 -2 -2 -2 -2 -1 -1 -1
6 7 10 9 9 8 7 5 5 5 5 5 4 6 3 3 1 0 0 -0 -0 -1 -0 -0 -1 -1 -0 -0 0 0 -0 -0 -0 -1 -1 -1 -1 -1 -1 -1 -1 -1 -1 -2 -2 -2 -1 -1 -0
5 7 9 9 10 8 6 6 4 4 5 3 3 6 5 3 1 0 0 0 1 -0 -1 -0 -1 0 1 -1 -0 0 0 0 -0 -0 -0 -0 -0 -1 -1 -1 -1 -1 -1 -2 -2 -1 -1 -0 0
5 8 9 9 9 8 6 6 4 3 4 4 3 3 3 2 1 1 1 1 1 1 0 -0 -0 0 1 -1 -1 -1 -0 -0 -0 -0 -0 -0 -1 -1 -1 -1 -1 -1 -1 -2 -2 -1 -1 -1 -0
6 8 8 7 7 7 6 6 5 5 5 5 4 3 2 2 2 3 3 2 2 2 1 0 -0 -1 -1 -1 -2 -2 -1 -1 -1 -1 -1 -1 -1 -2 -1 -1 -1 -1 -1 -1 -2 -1 -1 0 0
6 8 7 7 6 6 6 6 4 5 6 4 4 3 3 3 3 3 3 2 2 1 1 0 -0 -0 -0 -0 -1 -1 -1 -1 -1 -1 -1 -1 -2 -2 -2 -1 -2 -2 -1 -2 -1 -1 -0 -0 0
8 6 6 6 6 6 7 5 5 4 4 3 3 3 3 3 3 3 3 2 2 2 1 0 -0 -0 -0 -1 -0 -0 -0 -1 -0 -1 -1 -1 -1 -1 -1 -1 -1 -2 -2 -1 -1 -0 -1 -1 0
7 7 6 6 6 6 6 6 6 5 3 2 3 4 4 3 3 3 2 2 1 2 1 0 -0 -0 -0 -0 -0 -0 -0 -0 -0 -0 -1 -1 -1 -0 -1 -1 -1 -1 -2 -2 -1 -1 -0 0 1
7 7 6 6 6 6 7 6 5 4 3 4 4 4 4 4 3 3 3 3 3 2 1 0 0 -0 -0 -0 -0 0 -0 -0 -0 -1 -1 -1 -1 -0 0 -0 -0 -1 -2 -2 -1 -0 1 1 1
6 8 7 6 6 6 6 7 7 4 4 4 5 4 4 3 3 3 2 3 2 2 1 1 1 -0 -0 -0 0 -0 -0 0 -0 -0 -1 -0 -0 0 0 -0 0 -0 -1 -1 -1 0 1 3 3
8 8 10 7 7 6 6 9 6 4 5 4 4 4 4 4 3 3 2 2 1 2 2 1 1 0 0 1 1 0 -0 -0 -0 -1 -1 0 0 1 -0 0 1 0 -0 0 1 2 3 3 3
9 11 10 8 6 7 6 8 5 4 5 5 4 4 4 4 3 3 2 2 2 1 2 2 0 1 1 2 1 1 1 0 0 0 -0 0 1 1 1 1 1 1 2 2 2 2 2 3 3
11 10 10 10 7 7 7 7 6 4 5 5 4 4 4 4 4 3 2 2 1 1 2 2 1 1 1 2 2 2 2 1 0 1 1 1 1 1 1 1 0 1 2 2 2 2 2 2 3
9 10 10 9 7 8 8 8 7 5 4 5 5 5 5 4 3 2 2 2 2 1 2 2 2 1 1 2 3 3 3 2 1 1 1 1 1 1 0 1 1 1 2 2 2 2 2 3 3
9 10 10 9 8 8 8 8 7 6 5 4 4 5 5 4 4 3 3 2 2 2 2 2 2 2 2 2 3 3 2 2 2 2 2 1 1 1 1 1 1 1 2 1 2 2 3 3 3
10 11 11 10 8 8 8 9 9 7 5 5 4 4 4 4 4 4 3 3 2 2 2 2 2 2 2 2 3 3 3 2 3 2 2 2 1 1 1 1 1 0 1 2 2 2 2 3 4
12 9 10 10 10 12 9 13 10 7 7 5 5 5 4 4 4 3 3 3 3 2 1 1 1 2 2 2 2 3 4 5 3 2 2 2 1 1 1 0 0 0 1 1 1 2 2 2 3
10 8 9 9 10 10 10 12 11 7 8 6 5 4 4 4 4 4 3 3 3 2 2 1 1 2 2 2 2 3 3 3 2 2 1 1 1 1 2 1 1 1 1 1 0 1 1 1 1
7 8 9 9 10 14 11 11 11 9 8 7 5 5 4 4 4 3 3 2 2 2 1 1 1 1 2 2 1 2 2 3 3 3 2 1 1 0 1 1 1 1 0 -0 -0 -1 -0 -0 -0
9 10 14 16 16 16 10 11 10 7 6 6 5 5 4 4 4 4 3 3 3 2 2 2 1 2 2 1 1 1 1 2 3 2 2 1 2 2 2 1 0 0 -1 -1 -1 -0 -0 -0 0
10 10 14 17 16 14 10 13 10 6 5 5 5 4 4 4 4 4 3 3 3 2 2 2 2 2 2 2 2 1 0 1 1 0 1 1 1 0 -0 -0 -0 -0 -0 -1 -1 -0 -0 -0 -0
9 12 9 12 11 14 12 10 8 6 6 5 5 5 4 4 4 4 3 3 2 2 2 2 2 2 1 1 1 1 0 1 1 0 -0 0 -0 -0 -0 -1 -0 -1 -1 -1 -1 -0 -0 -0 -0
8 7 12 11 17 17 13 12 11 9 7 6 6 5 4 4 4 4 3 3 2 2 2 1 1 1 1 1 1 1 0 0 0 -0 0 0 -0 -0 -0 -0 -0 -0 -1 -1 -0 -0 -0 -0 0
9 10 10 10 11 15 16 12 8 8 7 6 5 5 4 4 4 4 3 3 2 2 2 2 2 1 1 1 1 1 1 0 0 0 0 -0 -0 -0 -0 -0 -0 -0 -0 -0 -0 -0 -0 0 0
8 9 9 12 13 12 13 12 6 6 6 5 5 5 4 4 4 3 3 3 3 2 2 2 3 2 1 1 1 1 0 0 1 0 1 0 -0 -0 -0 -0 -0 -0 -0 -0 0 1 0 1 1

GFSSGP_con_lsi_099.txt.gz
Lid_Strength_Index
-0 1 1 2 7 7 8 8 6 6 6 4 4 5 5 4 6 8 1 0 -0 -0 -1 -1 -1 -1 -1 -1 -1 -1 -1 -1 -1 -1 -1 -1 -1 -1 -1 -1 -1 -2 -2 -2 -2 -2 -2 -2 -2
0 1 1 3 8 9 8 6 7 6 5 4 4 4 5 5 3 3 2 0 -0 -0 -1 -1 -0 -1 -1 -1 -1 -1 -1 -1 -1 -1 -1 -1 -1 -1 -1 -1 -1 -2 -2 -2 -2 -2 -2 -2 -2
-0 1 4 6 7 9 9 6 6 5 4 4 5 3 4 4 2 2 0 -0 -0 -0 -1 -1 -0 -0 -0 -1 -1 -1 -1 -1 -1 -1 -1 -1 -1 -1 -1 -1 -1 -2 -2 -2 -2 -2 -2 -2 -2
2 4 5 8 8 7 7 6 5 5 4 4 4 5 3 2 2 1 0 -0 -0 -0 -1 -0 0 -0 -0 -1 -1 -1 -1 -1 -1 -1 -1 -1 -1 -1 -1 -1 -1 -2 -2 -2 -2 -2 -2 -1 -1
2 4 7 8 8 6 6 5 5 5 5 4 4 5 4 2 1 0 0 -0 0 -0 -1 -1 1 -0 -0 -1 -1 -0 -0 -1 -1 -1 -1 -1 -1 -1 -1 -1 -1 -2 -2 -2 -2 -2 -1 -1 -1
5 5 8 9 8 6 6 5 5 5 4 4 5 4 4 1 1 1 0 0 -0 -0 -0 -1 0 -1 0 1 0 -0 -0 -0 -0 -0 -1 -1 -1 -1 -1 -1 -1 -1 -2 -2 -2 -2 -1 -1 -1
6 6 8 7 8 7 6 4 5 5 5 4 3 5 3 2 1 0 0 -0 -0 -0 -0 -1 -1 -1 -1 -1 0 -0 0 -0 -0 -0 -0 -0 -1 -1 -1 -1 -1 -2 -2 -2 -2 -1 -1 -1 -0
5 6 8 7 8 8 6 5 4 5 5 3 3 5 5 3 1 0 0 0 0 -0 -0 -0 -1 -1 -1 -1 0 1 0 0 -0 -0 -0 -0 -0 -1 -1 -1 -1 -1 -2 -2 -2 -1 -1 -0 0
4 8 9 7 7 7 5 6 4 3 4 3 3 3 2 2 1 1 1 1 1 1 0 -1 -0 -0 -0 -1 -0 -0 -0 -0 -0 -0 -0 -0 -1 -1 -1 -1 -1 -1 -1 -2 -2 -1 -1 -0 0
6 8 8 5 5 6 6 6 5 5 5 4 3 2 1 2 2 2 2 2 2 2 1 -0 -0 -0 0 -1 1 -0 1 -0 -1 -1 -1 -1 -1 -1 -1 -1 -1 -1 -1 -1 -1 -1 -0 1 1
6 8 6 5 5 5 6 6 5 5 6 4 4 3 2 2 2 3 2 2 2 1 1 0 -0 -0 -0 -0 -0 -1 -1 1 -0 -1 -1 -1 -1 -1 -1 -1 -1 -1 -1 -0 -1 -0 1 0 1
7 6 6 5 5 5 6 5 6 5 5 3 3 2 2 3 3 3 3 2 2 2 1 0 -0 -0 -0 -0 -0 -0 -0 0 -0 -1 -1 -1 -1 -1 -1 -1 -1 -1 -1 -1 -0 0 -1 -0 0
7 6 5 5 5 5 5 6 6 6 4 3 2 2 3 3 3 2 2 2 2 2 1 1 -0 -0 -0 -0 -0 -1 -0 -0 -0 -0 -2 -1 -0 -0 -1 -1 -1 -1 -1 -1 -1 0 -0 -0 0
6 6 6 5 5 5 6 6 5 5 4 4 3 3 3 3 3 3 2 2 2 2 1 1 0 -0 -0 -0 -0 -0 -0 -0 -0 -0 -1 -2 -1 -1 -0 -0 -0 -1 -1 -1 -1 -1 -0 0 1
6 8 6 6 6 6 5 7 6 4 4 4 4 3 3 3 3 3 2 2 2 1 1 1 0 -0 -0 -0 -0 -0 -0 -1 -0 -0 -0 -1 -1 -1 -1 -0 -0 -1 -1 -2 -1 -1 -0 1 2
8 7 9 6 5 5 6 9 6 4 4 4 4 3 4 3 3 2 2 2 1 1 1 1 0 0 0 -0 -0 -0 -0 -0 -0 -0 -0 -0 -0 -1 -1 0 0 -1 -1 -1 -0 -0 1 2 3
9 10 9 8 5 6 7 8 5 4 4 4 4 4 3 3 3 2 2 2 2 1 1 1 1 1 0 0 -0 -0 -0 0 -0 -0 -0 -0 1 1 1 1 1 -1 -1 -1 -0 0 1 2 3
11 10 9 9 6 6 7 7 6 4 4 4 4 4 3 3 3 2 2 1 1 1 1 1 1 1 0 0 0 0 1 0 -0 0 0 1 1 1 2 1 1 0 0 0 0 1 2 2 2
9 9 9 7 6 7 7 7 6 5 5 4 4 4 4 4 3 2 2 1 2 2 1 2 1 1 1 1 2 2 2 1 1 0 0 1 1 1 1 2 1 1 1 1 1 1 1 2 1
10 10 10 8 7 7 7 8 6 6 5 5 4 4 4 3 3 3 2 2 2 2 2 3 1 1 1 1 2 2 2 2 1 1 1 1 2 2 2 2 1 1 2 2 1 1 2 2 2
9 10 9 10 8 7 8 9 7 6 5 5 4 4 3 3 4 4 3 3 2 2 2 2 2 1 1 2 1 2 3 3 3 2 2 2 2 2 2 2 1 1 1 2 1 1 1 3 3
10 7 8 9 10 12 8 13 8 7 6 5 5 4 4 3 3 3 3 3 2 2 1 1 1 1 2 1 2 2 3 4 3 3 2 2 2 2 2 1 1 1 1 1 1 1 1 1 3
9 7 8 9 10 10 10 11 9 7 8 6 5 4 4 3 3 3 3 3 2 2 2 1 1 1 1 1 1 2 3 3 3 2 2 2 2 2 2 1 1 -0 0 -0 0 0 1 1 1
7 7 8 8 9 14 11 11 11 9 8 6 5 4 4 3 3 3 3 2 2 2 2 2 2 1 1 2 1 2 3 3 2 3 3 3 2 2 2 1 1 0 0 0 0 -0 0 0 0
8 9 14 15 15 16 10 11 10 7 6 6 5 5 4 3 3 3 3 3 3 3 2 2 2 2 1 2 2 2 2 2 3 2 2 3 3 2 2 2 1 1 0 -0 -0 0 0 0 1
9 10 15 17 16 15 10 13 10 6 5 4 4 4 4 4 3 3 3 3 3 2 2 2 2 2 2 1 1 1 1 2 3 2 1 2 2 1 1 2 2 1 0 0 -0 -0 -0 -0 0
9 11 8 12 12 15 13 10 7 6 6 5 5 4 4 4 4 3 3 3 2 2 2 2 2 2 1 1 1 1 1 1 1 1 1 1 0 0 0 -0 0 -0 -0 -0 0 0 0 0 0
9 7 12 11 17 17 13 12 12 8 8 6 5 5 4 3 4 3 3 3 2 2 2 1 1 2 1 1 1 1 1 0 0 0 1 1 0 -0 0 0 0 -0 -0 -0 -0 0 -0 0 0
10 11 9 9 11 15 17 13 8 7 7 6 5 5 4 4 4 3 3 2 2 2 2 2 2 2 1 1 1 1 1 1 0 1 0 0 0 0 0 0 0 0 0 -0 0 0 0 1 1
8 9 9 13 13 11 13 13 6 6 6 6 5 4 4 3 3 3 3 3 3 2 2 2 2 2 1 1 1 1 1 1 1 1 0 0 0 -0 0 0 0 0 0 0 0 1 0 1 1